Date String (YYYY-MM-DD hh:mm:ss) UTC,Instrument flags,absolute air pressure of the measurement (hPa),sample flow rate (lpm),inlet stack bypass flow (lpm),air temperature of the measurement (°C),ambient temperature measured by the external sensor (°C),aerosol sample conditioner tube jacket temperature (°C),OPC LED temperature (°C),internal box temperature (°C),relative humidity of the measurement (%),span deviation,mass concentration of particles derived from Lorenz-Mie calculation of OPC scattering (μg/m³),mass concentration of particles derived from Lorenz-Mie calculation of OPC scattering (μg/m³),mass concentration of particles derived from Lorenz-Mie calculation of OPC scattering (μg/m³)
DateTimeUTC,F1_M11,P_M11,Q1_M11,Q2_M11,T1_M11,T2_M11,T3_M11,T4_M11,T5_M11,U1_M11,ZSPAN_M11,X2_M11,X0_M11,X1_M11
2024-02-27 02:00:00,SystemResetWarning,0815.2,5.01,000.00,023.9,022.9,000.0,032.3,025.6,08.2,0000.0,0001.75,0009.51,0000.77
2024-02-27 02:01:00,SystemResetWarning,0815.3,5.00,000.00,023.8,022.9,000.0,032.3,025.6,08.2,0000.0,0001.85,0009.29,0000.77
2024-02-27 02:02:00,SystemResetWarning,0815.3,5.01,000.00,023.8,022.9,000.0,032.3,025.6,08.2,0000.0,0001.90,0009.04,0000.77
2024-02-27 02:03:00,SystemResetWarning,0815.3,4.99,000.00,023.8,022.9,000.0,032.3,025.5,08.2,0000.0,0001.91,0009.04,0000.76
2024-02-27 02:04:00,SystemResetWarning,0815.3,4.99,000.00,023.8,022.9,000.0,032.3,025.5,08.2,0000.0,0001.91,0009.17,0000.77
2024-02-27 02:05:00,SystemResetWarning,0815.3,5.01,000.00,023.8,022.9,000.0,032.3,025.5,08.3,0000.0,0001.89,0008.72,0000.77
2024-02-27 02:06:00,SystemResetWarning,0815.2,5.00,000.00,023.8,022.8,000.0,032.3,025.5,08.3,0000.0,0001.85,0009.06,0000.77
2024-02-27 02:07:00,SystemResetWarning,0815.2,5.01,000.00,023.8,022.8,000.0,032.3,025.5,08.3,0000.0,0001.87,0008.73,0000.77
2024-02-27 02:08:00,SystemResetWarning,0815.1,5.00,000.00,023.8,022.8,000.0,032.2,025.5,08.2,0000.0,0001.88,0008.40,0000.79
2024-02-27 02:09:00,SystemResetWarning,0815.2,5.00,000.00,023.8,022.8,000.0,032.2,025.5,08.3,0000.0,0001.90,0008.36,0000.79
2024-02-27 02:10:00,SystemResetWarning,0815.2,4.98,000.00,023.7,022.8,000.0,032.2,025.5,08.5,0000.0,0001.90,0008.35,0000.80
2024-02-27 02:11:00,SystemResetWarning,0815.3,4.99,000.00,023.7,022.8,000.0,032.2,025.5,08.5,0000.0,0001.83,0007.78,0000.79
2024-02-27 02:12:00,SystemResetWarning,0815.3,5.01,000.00,023.7,022.8,000.0,032.2,025.5,08.5,0000.0,0001.74,0007.64,0000.79
2024-02-27 02:13:00,SystemResetWarning,0815.3,5.01,000.00,023.7,022.8,000.0,032.2,025.5,08.4,0000.0,0001.74,0007.92,0000.79
2024-02-27 02:14:00,SystemResetWarning,0815.3,5.00,000.00,023.7,022.8,000.0,032.2,025.5,08.4,0000.0,0001.74,0007.91,0000.81
2024-02-27 02:15:00,SystemResetWarning,0815.3,4.99,000.00,023.7,022.8,000.0,032.2,025.5,08.4,0000.0,0001.82,0007.80,0000.81
2024-02-27 02:16:00,SystemResetWarning,0815.2,4.99,000.00,023.7,022.8,000.0,032.2,025.5,08.4,0000.0,0001.84,0006.72,0000.81
2024-02-27 02:17:00,SystemResetWarning,0815.3,5.00,000.00,023.7,022.8,000.0,032.2,025.5,08.4,0000.0,0001.86,0005.27,0000.81
2024-02-27 02:18:00,SystemResetWarning,0815.3,5.01,000.00,023.7,022.8,000.0,032.2,025.5,08.5,0000.0,0001.91,0005.57,0000.82
2024-02-27 02:19:00,SystemResetWarning,0815.3,4.99,000.00,023.7,022.7,000.0,032.2,025.5,08.5,0000.0,0001.96,0005.98,0000.82
2024-02-27 02:20:00,SystemResetWarning,0815.3,5.01,000.00,023.7,022.7,000.0,032.2,025.5,08.5,0000.0,0001.99,0006.58,0000.83
2024-02-27 02:21:00,SystemResetWarning,0815.3,5.00,000.00,023.7,022.7,000.0,032.2,025.5,08.5,0000.0,0001.99,0006.77,0000.83
2024-02-27 02:22:00,SystemResetWarning,0815.3,5.00,000.00,023.7,022.7,000.0,032.1,025.4,08.6,0000.0,0001.98,0006.84,0000.84
2024-02-27 02:23:00,SystemResetWarning,0815.4,4.99,000.00,023.6,022.7,000.0,032.1,025.4,08.6,0000.0,0001.96,0007.93,0000.84
2024-02-27 02:24:00,SystemResetWarning,0815.4,5.00,000.00,023.6,022.7,000.0,032.1,025.4,08.6,0000.0,0001.96,0008.39,0000.85
2024-02-27 02:25:00,SystemResetWarning,0815.4,4.99,000.00,023.6,022.7,000.0,032.1,025.4,08.6,0000.0,0002.00,0008.58,0000.85
2024-02-27 02:26:00,SystemResetWarning,0815.3,5.01,000.00,023.6,022.7,000.0,032.1,025.4,08.6,0000.0,0002.03,0008.71,0000.85
2024-02-27 02:27:00,SystemResetWarning,0815.3,5.01,000.00,023.6,022.7,000.0,032.1,025.3,08.6,0000.0,0002.00,0008.73,0000.86
2024-02-27 02:28:00,SystemResetWarning,0815.3,5.01,000.00,023.6,022.6,000.0,032.1,025.3,08.6,0000.0,0002.02,0009.09,0000.87
2024-02-27 02:29:00,SystemResetWarning,0815.2,4.99,000.00,023.6,022.6,000.0,032.1,025.3,08.7,0000.0,0001.98,0009.22,0000.87
2024-02-27 02:30:00,SystemResetWarning,0815.2,5.00,000.00,023.5,022.6,000.0,032.1,025.3,08.7,0000.0,0001.94,0009.01,0000.86
2024-02-27 02:31:00,SystemResetWarning,0815.2,5.00,000.00,023.5,022.6,000.0,032.0,025.3,08.8,0000.0,0001.86,0008.55,0000.86
2024-02-27 02:32:00,SystemResetWarning,0815.2,4.99,000.00,023.5,022.6,000.0,032.0,025.3,08.9,0000.0,0001.88,0009.33,0000.86
2024-02-27 02:33:00,SystemResetWarning,0815.2,5.00,000.00,023.5,022.6,000.0,032.0,025.2,08.9,0000.0,0001.87,0009.84,0000.86
2024-02-27 02:34:00,SystemResetWarning,0815.2,5.00,000.00,023.5,022.6,000.0,032.0,025.2,08.9,0000.0,0001.86,0009.67,0000.86
2024-02-27 02:35:00,SystemResetWarning,0815.2,5.00,000.00,023.5,022.6,000.0,032.0,025.2,08.9,0000.0,0001.87,0008.82,0000.86
2024-02-27 02:36:00,SystemResetWarning,0815.2,5.00,000.00,023.5,022.5,000.0,032.0,025.2,08.9,0000.0,0001.87,0008.69,0000.85
2024-02-27 02:37:00,SystemResetWarning,0815.2,5.00,000.00,023.4,022.5,000.0,032.0,025.2,08.9,0000.0,0001.82,0008.61,0000.85
2024-02-27 02:38:00,SystemResetWarning,0815.2,5.00,000.00,023.4,022.5,000.0,032.0,025.1,08.9,0000.0,0001.85,0008.58,0000.85
2024-02-27 02:39:00,SystemResetWarning,0815.2,5.00,000.00,023.4,022.5,000.0,032.0,025.2,09.0,0000.0,0001.93,0008.61,0000.84
2024-02-27 02:40:00,SystemResetWarning,0815.2,4.99,000.00,023.4,022.5,000.0,031.9,025.1,08.9,0000.0,0001.95,0008.72,0000.85
2024-02-27 02:41:00,SystemResetWarning,0815.2,5.01,000.00,023.4,022.5,000.0,031.9,025.1,08.9,0000.0,0001.96,0008.93,0000.86
2024-02-27 02:42:00,SystemResetWarning,0815.1,5.01,000.00,023.4,022.5,000.0,031.9,025.1,08.9,0000.0,0001.98,0009.26,0000.87
2024-02-27 02:43:00,SystemResetWarning,0815.1,5.00,000.00,023.4,022.5,000.0,031.9,025.1,08.9,0000.0,0001.93,0008.41,0000.86
2024-02-27 02:44:00,SystemResetWarning,0815.1,4.99,000.00,023.4,022.5,000.0,031.9,025.1,09.0,0000.0,0001.99,0008.33,0000.87
2024-02-27 02:45:00,SystemResetWarning,0815.1,4.99,000.00,023.3,022.5,000.0,031.9,025.1,09.2,0000.0,0002.06,0007.64,0000.87
2024-02-27 02:46:00,SystemResetWarning,0815.2,4.99,000.00,023.3,022.4,000.0,031.9,025.1,09.2,0000.0,0002.03,0007.29,0000.88
2024-02-27 02:47:00,SystemResetWarning,0815.1,5.00,000.00,023.3,022.4,000.0,031.9,025.1,09.2,0000.0,0002.00,0007.53,0000.89
2024-02-27 02:48:00,SystemResetWarning,0815.1,5.00,000.00,023.3,022.4,000.0,031.9,025.1,09.2,0000.0,0001.95,0007.76,0000.89
2024-02-27 02:49:00,SystemResetWarning,0815.1,5.01,000.00,023.3,022.4,000.0,031.8,025.0,09.3,0000.0,0001.94,0007.82,0000.89
2024-02-27 02:50:00,SystemResetWarning,0815.0,5.01,000.00,023.3,022.4,000.0,031.8,025.0,09.3,0000.0,0001.89,0007.55,0000.89
2024-02-27 02:51:00,SystemResetWarning,0814.9,5.00,000.00,023.3,022.4,000.0,031.8,025.0,09.3,0000.0,0001.87,0007.15,0000.88
2024-02-27 02:52:00,SystemResetWarning,0814.9,4.99,000.00,023.3,022.4,000.0,031.8,025.0,09.3,0000.0,0001.87,0006.88,0000.88
2024-02-27 02:53:00,SystemResetWarning,0815.0,5.00,000.00,023.3,022.4,000.0,031.8,025.0,09.4,0000.0,0001.92,0007.08,0000.87
2024-02-27 02:54:00,SystemResetWarning,0815.0,5.00,000.00,023.3,022.4,000.0,031.8,025.0,09.4,0000.0,0001.94,0008.48,0000.89
2024-02-27 02:55:00,SystemResetWarning,0815.0,5.00,000.00,023.2,022.4,000.0,031.8,025.0,09.5,0000.0,0001.89,0008.26,0000.88
2024-02-27 02:56:00,SystemResetWarning,0814.9,5.00,000.00,023.2,022.4,000.0,031.8,025.0,09.6,0000.0,0001.85,0008.25,0000.89
2024-02-27 02:57:00,SystemResetWarning,0814.9,5.00,000.00,023.2,022.3,000.0,031.8,025.0,09.5,0000.0,0001.86,0008.40,0000.87
2024-02-27 02:58:00,SystemResetWarning,0815.0,5.01,000.00,023.2,022.3,000.0,031.8,025.0,09.5,0000.0,0001.88,0008.25,0000.86
2024-02-27 02:59:00,SystemResetWarning,0814.9,5.00,000.00,023.2,022.3,000.0,031.7,025.0,09.5,0000.0,0001.96,0008.31,0000.87
